Weather History for Vidalia, GA

Change the Weather History Date:

Sunday, February 3, 2013

  Actual Average (KAZE) Record (KAZE)
Temperature  
Mean Temperature 53 °F -  
Max Temperature 64 °F 52 °F 77 °F (2013)
Min Temperature 42 °F 30 °F 37 °F (2013)
Degree Days  
Heating Degree Days 12    
Growing Degree Days 3 (Base 50)    
Moisture  
Dew Point 34 °F    
Average Humidity 50    
Maximum Humidity 81    
Minimum Humidity 30    
Precipitation  
Precipitation 0.00 in - - ()
Sea Level Pressure  
Sea Level Pressure 30.09 in    
Wind  
Wind Speed 6 mph (West)    
Max Wind Speed 15 mph    
Max Gust Speed 25 mph    
Visibility 10 miles    
Events      
Averages and records for this station are not official NWS values.
T = Trace of Precipitation, MM = Missing Value Source: NWS Daily Summary

Daily Weather History Graph

Daily Weather History Graph

Search for Another Location

Airport:

Trip Planner

Search our weather history database for the weather conditions in past years. The results will help you decide how hot, cold, wet, or windy it might be!

Date:

Astronomy

Feb. 03, 2013 Rise Set
Actual Time 7:21 AM EST 6:05 PM EST
Civil Twilight 6:56 AM EST 6:30 PM EST
Nautical Twilight 6:27 AM EST 7:00 PM EST
Astronomical Twilight 5:58 AM EST 7:28 PM EST
Moon 12:47 AM EST (2/3) 11:43 AM EST (2/3)
Length of Visible Light 11h 34m
Length of Day
10h 43m
Waning Gibbous, 49% of the Moon is Illuminated
Feb 3
Waning Gibbous
Feb 10
New
Feb 17
First Quarter
Feb 25
Full
Mar 4
Last Quarter

Hourly Weather History & Observations

Time (EST) Temp. Windchill Dew Point Humidity Pressure Visibility Wind Dir Wind Speed Gust Speed Precip Events Conditions
12:15 AM 51.8 °F - 30.2 °F 44% 30.12 in 10.0 mi WSW 6.9 mph - N/A   Mostly Cloudy
12:35 AM 51.8 °F - 32.0 °F 47% 30.12 in 10.0 mi WSW 5.8 mph - N/A   Mostly Cloudy
12:55 AM 51.8 °F - 30.2 °F 44% 30.12 in 10.0 mi WNW 5.8 mph - N/A   Mostly Cloudy
1:15 AM 50.0 °F - 30.2 °F 47% 30.10 in 10.0 mi WSW 3.5 mph - N/A   Scattered Clouds
1:55 AM 48.2 °F - 32.0 °F 54% 30.10 in 10.0 mi Calm Calm - N/A   Clear
2:15 AM 48.2 °F - 32.0 °F 54% 30.10 in 10.0 mi West 3.5 mph - N/A   Clear
2:35 AM 46.4 °F 45.2 °F 32.0 °F 57% 30.10 in 10.0 mi WSW 3.5 mph - N/A   Scattered Clouds
2:55 AM 44.6 °F 42.2 °F 32.0 °F 61% 30.10 in 10.0 mi WSW 4.6 mph - N/A   Mostly Cloudy
3:15 AM 44.6 °F 41.4 °F 32.0 °F 61% 30.09 in 10.0 mi WSW 5.8 mph - N/A   Scattered Clouds
3:35 AM 44.6 °F 42.2 °F 32.0 °F 61% 30.10 in 10.0 mi WSW 4.6 mph - N/A   Clear
3:55 AM 46.4 °F 43.5 °F 33.8 °F 62% 30.10 in 10.0 mi WNW 5.8 mph - N/A   Clear
4:15 AM 46.4 °F 42.9 °F 33.8 °F 62% 30.11 in 10.0 mi WNW 6.9 mph - N/A   Clear
4:35 AM 46.4 °F 41.9 °F 35.6 °F 66% 30.12 in 10.0 mi WNW 9.2 mph - N/A   Clear
4:55 AM 46.4 °F 42.9 °F 35.6 °F 66% 30.12 in 10.0 mi NW 6.9 mph - N/A   Clear
5:15 AM 46.4 °F 43.5 °F 37.4 °F 71% 30.13 in 10.0 mi NW 5.8 mph - N/A   Clear
5:35 AM 46.4 °F 44.3 °F 37.4 °F 71% 30.13 in 10.0 mi WNW 4.6 mph - N/A   Clear
5:55 AM 44.6 °F 42.2 °F 37.4 °F 76% 30.14 in 10.0 mi WNW 4.6 mph - N/A   Clear
6:15 AM 44.6 °F 42.2 °F 35.6 °F 71% 30.14 in 10.0 mi West 4.6 mph - N/A   Clear
6:35 AM 42.8 °F 41.1 °F 35.6 °F 76% 30.14 in 10.0 mi WSW 3.5 mph - N/A   Clear
6:55 AM 42.8 °F - 37.4 °F 81% 30.15 in 10.0 mi Calm Calm - N/A   Clear
7:15 AM 42.8 °F - 35.6 °F 76% 30.15 in 10.0 mi Calm Calm - N/A   Clear
7:35 AM 42.8 °F 41.1 °F 37.4 °F 81% 30.16 in 10.0 mi WSW 3.5 mph - N/A   Clear
7:55 AM 42.8 °F 41.1 °F 37.4 °F 81% 30.16 in 10.0 mi West 3.5 mph - N/A   Clear
8:15 AM 44.6 °F 42.2 °F 37.4 °F 76% 30.17 in 10.0 mi West 4.6 mph - N/A   Clear
8:35 AM 46.4 °F 43.5 °F 37.4 °F 71% 30.17 in 10.0 mi West 5.8 mph - N/A   Clear
8:55 AM 48.2 °F - 37.4 °F 66% 30.17 in 10.0 mi West 4.6 mph - N/A   Clear
9:15 AM 50.0 °F - 37.4 °F 62% 30.17 in 10.0 mi West 8.1 mph - N/A   Clear
9:55 AM 51.8 °F - 35.6 °F 54% 30.16 in 10.0 mi West 6.9 mph - N/A   Clear
10:15 AM 53.6 °F - 35.6 °F 51% 30.16 in 10.0 mi West 8.1 mph - N/A   Clear
10:35 AM 55.4 °F - 35.6 °F 47% 30.15 in 10.0 mi WNW 9.2 mph - N/A   Clear
10:55 AM 55.4 °F - 33.8 °F 44% 30.14 in 10.0 mi West 9.2 mph - N/A   Clear
11:15 AM 55.4 °F - 33.8 °F 44% 30.14 in 10.0 mi West 11.5 mph 19.6 mph N/A   Clear
11:35 AM 59.0 °F - 32.0 °F 36% 30.13 in 10.0 mi West 11.5 mph 19.6 mph N/A   Clear
11:55 AM 59.0 °F - 32.0 °F 36% 30.11 in 10.0 mi West 11.5 mph 20.7 mph N/A   Clear
12:15 PM 60.8 °F - 32.0 °F 34% 30.09 in 10.0 mi WNW 10.4 mph 16.1 mph N/A   Clear
12:35 PM 60.8 °F - 32.0 °F 34% 30.08 in 10.0 mi West 11.5 mph 20.7 mph N/A   Clear
12:55 PM 62.6 °F - 33.8 °F 34% 30.07 in 10.0 mi West 11.5 mph 19.6 mph N/A   Clear
1:15 PM 62.6 °F - 33.8 °F 34% 30.05 in 10.0 mi West 12.7 mph 17.3 mph N/A   Clear
1:35 PM 62.6 °F - 32.0 °F 32% 30.04 in 10.0 mi West 11.5 mph 24.2 mph N/A   Clear
1:55 PM 62.6 °F - 32.0 °F 32% 30.03 in 10.0 mi West 10.4 mph 20.7 mph N/A   Clear
2:15 PM 64.4 °F - 32.0 °F 30% 30.01 in 10.0 mi WNW 9.2 mph 21.9 mph N/A   Clear
2:35 PM 64.4 °F - 32.0 °F 30% 30.01 in 10.0 mi West 10.4 mph 19.6 mph N/A   Clear
2:55 PM 64.4 °F - 32.0 °F 30% 30.01 in 10.0 mi WNW 15.0 mph 25.3 mph N/A   Clear
3:15 PM 64.4 °F - 32.0 °F 30% 30.01 in 10.0 mi West 11.5 mph 24.2 mph N/A   Clear
3:35 PM 64.4 °F - 32.0 °F 30% 30.01 in 10.0 mi West 12.7 mph 19.6 mph N/A   Clear
3:55 PM 64.4 °F - 32.0 °F 30% 30.00 in 10.0 mi West 12.7 mph 20.7 mph N/A   Clear
4:15 PM 64.4 °F - 32.0 °F 30% 30.01 in 10.0 mi West 12.7 mph 23.0 mph N/A   Clear
4:55 PM 64.4 °F - 32.0 °F 30% 30.01 in 10.0 mi West 12.7 mph 18.4 mph N/A   Clear
5:15 PM 62.6 °F - 32.0 °F 32% 30.01 in 10.0 mi WSW 9.2 mph 16.1 mph N/A   Clear
5:55 PM 60.8 °F - 32.0 °F 34% 30.02 in 10.0 mi West 5.8 mph - N/A   Clear
6:15 PM 59.0 °F - 32.0 °F 36% 30.02 in 10.0 mi West 5.8 mph - N/A   Clear
6:55 PM 59.0 °F - 32.0 °F 36% 30.04 in 10.0 mi WSW 4.6 mph - N/A   Clear
7:15 PM 55.4 °F - 32.0 °F 41% 30.04 in 10.0 mi WSW 4.6 mph - N/A   Clear
7:35 PM 55.4 °F - 32.0 °F 41% 30.04 in 10.0 mi WSW 4.6 mph - N/A   Clear
7:55 PM 53.6 °F - 32.0 °F 44% 30.04 in 10.0 mi WSW 4.6 mph - N/A   Clear
8:15 PM 51.8 °F - 33.8 °F 50% 30.05 in 10.0 mi WSW 5.8 mph - N/A   Clear
8:35 PM 53.6 °F - 33.8 °F 47% 30.05 in 10.0 mi WSW 4.6 mph - N/A   Clear
8:55 PM 51.8 °F - 33.8 °F 50% 30.06 in 10.0 mi Calm Calm - N/A   Clear
9:15 PM 53.6 °F - 33.8 °F 47% 30.06 in 10.0 mi WSW 3.5 mph - N/A   Clear
9:35 PM 51.8 °F - 33.8 °F 50% 30.07 in 10.0 mi WSW 3.5 mph - N/A   Clear
9:55 PM 51.8 °F - 33.8 °F 50% 30.08 in 10.0 mi Calm Calm - N/A   Clear
10:15 PM 51.8 °F - 33.8 °F 50% 30.09 in 10.0 mi West 3.5 mph - N/A   Clear
10:35 PM 51.8 °F - 33.8 °F 50% 30.09 in 10.0 mi West 3.5 mph - N/A   Clear
10:55 PM 50.0 °F - 33.8 °F 54% 30.09 in 10.0 mi Calm Calm - N/A   Clear
11:15 PM 50.0 °F - 33.8 °F 54% 30.09 in 10.0 mi NW 3.5 mph - N/A   Clear
11:35 PM 50.0 °F - 32.0 °F 50% 30.09 in 10.0 mi NW 3.5 mph - N/A   Clear
11:55 PM 48.2 °F - 32.0 °F 54% 30.09 in 10.0 mi Calm Calm - N/A   Clear